TimeAEDT,TemperatureF,Dew PointF,Humidity,Sea Level PressureIn,VisibilityMPH,Wind Direction,Wind SpeedMPH,Gust SpeedMPH,PrecipitationIn,Events,Conditions,WindDirDegrees,DateUTC
12:00 AM,71,65,78,29.67,,NE,4.6,,,,,50,2014-01-05 13:00:00
12:00 AM,71.6,66.2,83,29.65,6.2,NE,4.6,-,N/A,,Unknown,50,2014-01-05 13:00:00
12:30 AM,69.8,66.2,88,29.65,6.2,NE,3.5,-,N/A,,Unknown,50,2014-01-05 13:30:00
1:00 AM,66.2,64.4,94,29.65,6.2,SW,8.1,-,N/A,,Unknown,220,2014-01-05 14:00:00
1:30 AM,68.0,64.4,88,29.65,6.2,SW,1.2,-,N/A,,Unknown,230,2014-01-05 14:30:00
2:00 AM,66,64,91,29.67,,Calm,Calm,,,,,,2014-01-05 15:00:00
2:00 AM,66.2,64.4,94,29.65,6.2,Calm,Calm,-,N/A,,Unknown,0,2014-01-05 15:00:00
2:30 AM,64.4,62.6,94,29.65,6.2,NNW,5.8,-,N/A,,Unknown,330,2014-01-05 15:30:00
3:00 AM,64,63,95,29.66,,NW,6.9,,,,,310,2014-01-05 16:00:00
3:00 AM,64.4,62.6,94,29.65,6.2,NW,6.9,-,N/A,,Unknown,310,2014-01-05 16:00:00
3:30 AM,66.2,64.4,94,29.65,6.2,NW,5.8,-,N/A,,Unknown,310,2014-01-05 16:30:00
4:00 AM,68.0,66.2,94,29.65,6.2,NW,9.2,-,N/A,,Unknown,310,2014-01-05 17:00:00
4:30 AM,66.2,64.4,94,29.68,6.2,WNW,9.2,-,N/A,,Unknown,290,2014-01-05 17:30:00
5:00 AM,66,64,93,29.70,,WNW,9.2,,,,,300,2014-01-05 18:00:00
5:00 AM,66.2,64.4,94,29.68,6.2,WNW,9.2,-,N/A,,Unknown,300,2014-01-05 18:00:00
5:30 AM,66.2,64.4,94,29.71,6.2,West,9.2,-,N/A,,Unknown,280,2014-01-05 18:30:00
6:00 AM,66,64,90,29.73,16,West,6.9,,,Fog,Patches of Fog,280,2014-01-05 19:00:00
6:00 AM,66.2,64.4,94,29.71,6.2,West,6.9,-,N/A,Fog,Partly Cloudy,280,2014-01-05 19:00:00
6:30 AM,68.0,64.4,88,29.74,6.2,WNW,8.1,-,N/A,Fog,Partly Cloudy,290,2014-01-05 19:30:00
7:00 AM,69.8,66.2,88,29.74,-9999.0,WNW,10.4,-,N/A,,Clear,290,2014-01-05 20:00:00
7:30 AM,71.6,64.4,78,29.77,-9999.0,West,8.1,-,N/A,,Clear,280,2014-01-05 20:30:00
8:00 AM,75,60,51,29.78,,WSW,8.1,,,,,240,2014-01-05 21:00:00
8:00 AM,75.2,60.8,61,29.77,-9999.0,WSW,8.1,-,N/A,,Clear,240,2014-01-05 21:00:00
8:30 AM,77.0,53.6,44,29.77,-9999.0,WSW,12.7,-,N/A,,Clear,250,2014-01-05 21:30:00
9:00 AM,80,48,22,29.79,19,WSW,10.4,,,,Haze,240,2014-01-05 22:00:00
9:00 AM,80.6,48.2,32,29.77,-9999.0,WSW,10.4,-,N/A,,Clear,240,2014-01-05 22:00:00
9:30 AM,82.4,42.8,25,29.77,-9999.0,SW,12.7,-,N/A,,Clear,230,2014-01-05 22:30:00
10:00 AM,82.4,42.8,25,29.77,-9999.0,SSW,11.5,-,N/A,,Clear,210,2014-01-05 23:00:00
10:30 AM,82.4,44.6,26,29.77,-9999.0,SW,5.8,-,N/A,,Clear,230,2014-01-05 23:30:00
11:00 AM,82,46,19,29.78,,SSE,12.7,,,,,160,2014-01-06 00:00:00
11:00 AM,82.4,46.4,28,29.77,-9999.0,SSE,12.7,-,N/A,,Clear,160,2014-01-06 00:00:00
11:30 AM,82.4,46.4,28,29.77,-9999.0,South,13.8,-,N/A,,Clear,170,2014-01-06 00:30:00
12:00 PM,82,47,20,29.78,19,SSE,16.1,,,,Haze,150,2014-01-06 01:00:00
12:00 PM,82.4,48.2,30,29.77,-9999.0,SSE,16.1,-,N/A,,Clear,150,2014-01-06 01:00:00
12:30 PM,80.6,48.2,32,29.77,-9999.0,SSE,19.6,-,N/A,,Clear,150,2014-01-06 01:30:00
1:00 PM,80.6,48.2,32,29.77,-9999.0,SSE,18.4,-,N/A,,Clear,150,2014-01-06 02:00:00
1:30 PM,82.4,48.2,30,29.74,-9999.0,SSE,18.4,-,N/A,,Clear,160,2014-01-06 02:30:00
2:00 PM,81,49,23,29.75,,SE,17.3,,,,,130,2014-01-06 03:00:00
2:00 PM,80.6,50.0,34,29.74,-9999.0,SE,17.3,-,N/A,,Clear,130,2014-01-06 03:00:00
2:30 PM,82.4,48.2,30,29.74,-9999.0,SE,19.6,-,N/A,,Clear,140,2014-01-06 03:30:00
3:00 PM,81,51,24,29.76,19,East,17.3,,,,Haze,100,2014-01-06 04:00:00
3:00 PM,80.6,50.0,34,29.74,-9999.0,East,17.3,-,N/A,,Clear,100,2014-01-06 04:00:00
3:30 PM,80.6,53.6,39,29.74,-9999.0,SE,18.4,-,N/A,,Clear,130,2014-01-06 04:30:00
4:00 PM,78.8,51.8,39,29.74,-9999.0,ESE,16.1,-,N/A,,Clear,120,2014-01-06 05:00:00
4:30 PM,77.0,57.2,50,29.77,-9999.0,ESE,18.4,-,N/A,,Clear,120,2014-01-06 05:30:00
5:00 PM,76,57,41,29.77,,ESE,18.4,,,,,120,2014-01-06 06:00:00
5:00 PM,77.0,57.2,50,29.77,-9999.0,ESE,18.4,-,N/A,,Clear,120,2014-01-06 06:00:00
5:30 PM,75.2,59.0,57,29.77,-9999.0,ESE,15.0,-,N/A,,Clear,110,2014-01-06 06:30:00
6:00 PM,75,59,47,29.80,,ESE,15.0,,,,,110,2014-01-06 07:00:00
6:00 PM,75.2,59.0,57,29.77,-9999.0,ESE,15.0,-,N/A,,Clear,110,2014-01-06 07:00:00
6:30 PM,73.4,59.0,61,29.80,-9999.0,ESE,12.7,-,N/A,,Clear,110,2014-01-06 07:30:00
7:00 PM,73.4,59.0,61,29.83,-9999.0,ESE,11.5,-,N/A,,Clear,110,2014-01-06 08:00:00
7:30 PM,71.6,59.0,64,29.86,-9999.0,ESE,9.2,-,N/A,,Clear,110,2014-01-06 08:30:00
8:00 PM,71,61,62,29.89,,East,8.1,,,,,90,2014-01-06 09:00:00
8:00 PM,71.6,60.8,69,29.89,6.2,East,8.1,-,N/A,,Mostly Cloudy,90,2014-01-06 09:00:00
8:30 PM,69.8,60.8,73,29.92,6.2,East,8.1,-,N/A,,Mostly Cloudy,100,2014-01-06 09:30:00
9:00 PM,69,62,71,29.94,,East,8.1,,,,Overcast,100,2014-01-06 10:00:00
9:00 PM,69.8,62.6,78,29.92,6.2,East,8.1,-,N/A,,Overcast,100,2014-01-06 10:00:00
9:30 PM,68.0,62.6,83,29.95,6.2,ESE,8.1,-,N/A,,Overcast,110,2014-01-06 10:30:00
10:00 PM,68.0,62.6,83,29.98,6.2,SE,5.8,-,N/A,,Overcast,130,2014-01-06 11:00:00
10:30 PM,68.0,62.6,83,29.98,-9999.0,SE,6.9,-,N/A,,Overcast,130,2014-01-06 11:30:00
11:00 PM,68,62,75,29.98,,East,6.9,,,,,90,2014-01-06 12:00:00
11:00 PM,68.0,62.6,83,29.98,6.2,East,6.9,-,N/A,,Overcast,90,2014-01-06 12:00:00
11:30 PM,68.0,60.8,78,29.98,6.2,East,6.9,-,N/A,,Overcast,90,2014-01-06 12:30:00